SCP
0 0 0 0 0 0 0 0 0 0 0 0 0 0 0 0 0 0 0 0 0 0 0 1 2 3 2 1 0 0 0 0 0 0 0 0 0 0 0 0 0 0 0
0 0 0 0 0 0 0 0 0 0 0 0 0 0 0 0 0 0 0 0 0 0 0 0 2 2 2 1 0 0 0 0 0 0 0 0 0 0 0 0 0 0 0
0 0 0 0 0 0 0 0 0 0 0 0 0 0 0 0 0 0 0 0 0 0 0 0 1 2 3 2 1 0 0 0 0 0 0 0 0 0 0 0 0 0 0
0 0 0 0 0 0 0 0 0 0 0 0 0 0 0 0 0 0 0 0 0 0 0 0 0 1 2 2 1 0 0 0 0 0 0 0 0 0 0 0 0 0 0
0 0 0 0 0 0 0 0 0 0 0 0 0 0 0 0 0 0 0 0 0 0 0 0 0 1 2 2 1 0 0 0 0 0 0 0 0 0 0 0 0 0 0
0 0 0 0 0 0 0 0 0 0 0 0 0 0 0 0 0 0 0 0 0 0 0 0 0 0 1 1 1 0 0 0 0 0 0 0 0 0 0 0 0 0 0
0 0 0 0 0 0 0 0 0 0 0 0 0 0 0 0 0 0 0 0 0 0 0 0 0 0 0 1 1 0 0 0 0 0 0 0 0 0 0 0 0 0 0
0 0 0 0 0 0 0 0 0 0 0 0 0 0 0 0 0 0 0 0 0 0 0 0 0 0 0 0 1 0 0 0 0 0 0 0 0 0 0 0 0 0 0
0 0 0 0 0 0 0 0 0 0 0 0 0 0 0 0 0 0 0 0 0 0 0 0 0 0 0 0 0 1 0 0 0 0 0 0 0 0 0 0 0 0 0
0 0 0 0 0 0 0 0 0 0 0 0 0 0 0 0 0 0 0 0 0 0 0 0 0 0 0 0 0 1 0 0 0 0 0 0 0 0 0 0 0 0 0
0 0 0 0 0 0 0 0 0 0 0 0 0 0 0 0 0 0 0 0 0 0 0 0 0 0 0 0 0 1 1 0 0 0 0 0 0 0 0 0 0 0 0
0 0 0 0 0 0 0 0 0 0 0 0 0 0 0 0 0 0 0 0 0 0 0 0 0 0 0 0 0 0 1 0 0 0 0 0 0 0 0 0 0 0 0
0 0 0 0 0 0 0 0 0 0 0 0 0 0 0 0 0 0 0 0 0 0 0 0 0 0 0 0 0 0 1 1 0 0 0 0 0 0 0 0 0 0 0
0 0 0 0 0 0 0 0 0 0 0 0 0 0 0 0 0 0 0 0 0 0 0 0 0 0 0 0 0 0 1 1 0 0 0 0 0 0 0 0 0 0 0
0 0 0 0 0 0 0 0 0 0 0 0 0 0 0 0 0 0 0 0 0 0 0 0 0 0 0 0 0 0 0 0 0 0 0 0 0 0 0 0 0 0 0
0 0 0 0 0 0 0 0 0 0 0 0 0 0 0 0 0 0 0 0 0 0 0 0 0 0 0 0 0 0 0 0 0 0 0 0 0 0 0 0 0 0 0
0 0 0 0 0 0 0 0 0 0 0 0 0 0 0 0 0 0 0 0 0 0 0 0 0 0 0 0 0 0 0 0 0 0 0 0 0 0 0 0 0 0 0
0 0 0 0 0 0 0 0 0 0 0 0 0 0 0 0 0 0 0 0 0 0 0 0 0 0 0 0 0 0 0 0 0 0 0 0 0 0 0 0 0 0 0
0 0 0 0 0 0 0 0 0 0 0 0 0 0 0 0 0 0 0 0 0 0 0 0 0 0 0 0 0 0 0 0 0 0 0 0 0 0 0 0 0 0 0
0 0 0 0 0 0 0 0 0 0 0 0 0 0 0 0 0 0 0 0 0 0 0 0 0 0 0 0 0 0 0 0 0 0 0 0 0 0 0 0 0 0 0
0 0 0 0 0 0 0 0 0 0 0 0 0 0 0 0 0 0 0 0 0 0 0 0 0 0 0 0 0 0 0 0 0 0 0 0 0 0 0 0 0 0 0
0 0 0 0 0 0 0 0 0 0 0 0 0 0 0 0 0 0 0 0 0 0 0 0 0 0 0 0 0 0 0 0 0 0 0 0 0 0 0 0 0 0 0
0 0 0 0 0 0 0 0 0 0 0 0 0 0 0 0 0 0 0 0 0 0 0 0 0 0 0 0 0 0 0 0 0 0 0 0 0 0 0 0 0 0 0
0 0 0 0 0 0 0 0 0 0 0 0 0 0 0 0 0 0 0 0 0 0 0 0 0 0 0 0 0 0 0 0 0 0 0 0 0 0 0 0 0 0 0
0 0 0 0 0 0 0 0 0 0 0 0 0 0 0 0 0 0 0 0 0 0 0 0 0 0 0 0 0 0 0 0 0 0 0 0 0 0 0 0 0 0 0
0 0 0 0 0 0 0 0 0 0 0 0 0 0 0 0 0 0 0 0 0 0 0 0 0 0 0 0 0 0 0 0 0 0 0 0 0 0 0 0 0 0 0
Wind_Speed
4 4 4 3 3 4 4 3 3 3 2 1 1 1 1 1 2 2 2 2 2 2 2 2 2 2 2 2 3 2 3 3 3 2 2 2 1 1 2 2 2 3 3
4 4 4 3 3 3 3 3 3 3 2 1 1 1 1 1 1 1 2 2 2 2 2 2 1 1 1 2 3 3 2 2 3 2 1 1 2 2 1 1 2 2 2
5 4 3 3 3 3 2 2 2 2 2 2 1 1 2 1 1 1 1 1 1 1 2 2 1 1 1 1 1 2 2 1 2 2 1 1 1 2 2 2 2 2 2
4 4 3 3 2 2 2 2 2 2 2 2 2 2 1 1 1 1 0 1 1 1 1 1 1 1 1 1 1 1 1 1 1 2 2 1 0 0 2 2 2 2 2
4 4 3 3 2 2 2 2 2 2 2 2 2 1 1 1 1 1 1 0 1 1 0 1 1 1 0 0 1 1 1 1 0 0 1 2 2 1 1 2 2 2 1
4 4 3 3 2 2 2 2 2 2 2 2 1 1 1 1 2 1 1 0 0 0 0 0 0 0 0 0 0 0 0 1 1 1 0 0 0 1 1 2 2 2 2
4 4 3 3 3 2 2 2 2 1 2 2 1 1 1 1 2 2 1 1 0 0 1 0 0 0 1 1 1 1 1 0 0 1 1 1 1 1 1 1 2 3 2
4 3 3 3 3 3 2 2 2 1 1 2 1 1 1 1 1 1 1 1 1 1 1 0 0 0 1 1 1 1 1 1 1 1 1 1 1 1 1 1 1 3 3
3 3 3 3 3 3 3 2 2 1 1 1 1 1 1 1 1 1 1 1 1 1 1 1 1 1 1 1 1 1 1 1 1 1 1 1 1 1 1 1 1 1 3
3 3 3 3 3 3 2 2 2 2 1 1 1 1 1 1 1 1 1 1 1 0 1 1 1 1 1 2 2 1 2 2 2 1 1 2 1 1 1 1 2 1 2
3 2 2 2 2 2 2 2 2 2 1 1 1 1 1 1 1 1 2 1 1 1 1 2 2 2 2 2 2 2 2 2 2 2 2 2 2 1 1 1 2 2 2
2 2 2 2 2 2 1 1 1 1 2 2 1 2 2 2 2 2 2 1 1 1 2 2 2 2 2 2 2 3 3 3 3 3 3 3 2 2 2 2 2 2 2
2 2 2 1 1 1 1 1 1 1 1 1 1 2 2 2 3 3 2 2 2 2 2 2 3 3 3 3 3 3 3 3 3 3 3 3 3 3 2 3 3 3 3
1 2 1 1 1 1 1 1 1 1 1 1 2 2 3 3 3 2 2 2 2 2 3 3 3 3 3 4 4 4 4 4 4 4 4 4 4 4 4 4 4 3 3
1 1 1 1 1 1 1 1 1 1 1 2 2 3 3 2 2 2 3 2 2 3 3 3 3 3 3 4 4 5 5 4 4 4 4 5 7 8 7 5 4 4 4
2 1 1 1 1 1 1 1 1 1 1 2 2 2 2 2 2 2 2 2 2 2 3 3 3 4 4 8 9 6 5 5 5 5 5 5 7 9 11 11 10 8 6
2 2 2 2 1 1 1 2 2 1 1 2 2 2 2 2 2 2 2 2 2 3 3 3 3 4 6 10 10 10 5 4 4 5 5 5 6 7 5 8 11 10 12
2 2 1 1 1 0 0 1 1 1 1 2 2 2 2 2 2 2 2 2 2 2 3 4 4 4 7 10 11 10 5 3 4 5 5 5 5 6 6 5 5 5 6
2 1 1 1 1 1 0 1 0 0 1 2 2 2 2 2 2 2 2 2 2 3 3 4 4 5 6 11 11 9 3 4 5 5 5 6 5 10 11 7 6 6 6
2 2 2 1 1 1 1 1 0 1 2 2 2 2 2 2 2 3 3 2 3 3 4 5 4 5 6 10 11 10 3 4 4 4 5 9 9 11 12 6 5 7 7
2 2 1 1 1 1 1 0 1 2 2 2 2 2 2 2 3 3 3 3 3 3 4 5 5 5 7 9 12 11 4 4 5 5 4 5 11 12 12 10 6 9 8
2 2 1 1 1 1 1 1 2 2 1 1 2 2 2 3 2 3 3 3 3 3 4 4 5 4 5 8 10 12 10 8 5 5 4 5 11 13 13 10 10 12 9
2 1 1 1 1 1 0 1 2 2 1 1 2 3 3 3 3 3 3 3 3 3 4 4 4 4 4 5 10 11 11 10 6 5 9 10 12 11 8 10 12 10 5
2 1 1 1 2 1 1 1 2 2 1 2 3 3 3 3 3 3 3 3 3 3 4 4 4 4 4 3 4 4 5 8 7 5 7 11 11 9 8 8 7 5 4
2 1 1 2 3 2 2 2 2 1 2 3 3 3 3 3 3 3 3 4 4 5 5 4 4 4 5 6 9 6 4 4 5 4 3 3 3 4 4 4 4 4 3
2 2 2 3 3 2 2 2 2 2 2 3 3 2 2 3 3 3 4 8 9 11 12 11 10 7 10 12 12 11 11 11 10 6 3 4 4 5 4 4 4 4 4
Wind_Direction
121 108 102 90 94 91 90 88 83 80 81 94 108 111 107 87 78 74 73 71 60 57 63 50 39 28 28 23 19 16 23 18 5 15 352 332 348 82 69 56 47 38 35
130 122 113 99 98 101 100 101 96 95 93 80 84 111 117 119 118 90 81 74 71 62 64 65 43 31 34 30 30 31 22 11 11 14 359 346 342 13 33 60 68 44 28
150 138 125 112 101 112 123 122 109 103 95 85 76 95 89 71 71 69 80 87 85 77 76 81 63 29 61 61 28 34 36 4 344 16 46 80 298 331 331 5 49 41 30
139 138 133 129 126 128 117 113 114 107 104 107 99 122 129 143 150 144 117 97 105 81 70 89 85 59 39 58 1 24 17 43 342 343 359 1 101 200 313 318 10 17 21
142 143 143 144 128 120 123 120 117 112 109 110 108 122 137 121 108 101 105 105 103 104 87 96 98 89 53 44 10 359 16 12 348 328 326 334 342 21 245 284 308 332 333
141 143 137 126 120 112 114 118 122 112 112 117 117 110 125 132 126 128 147 158 130 153 4 84 96 144 162 71 291 309 7 342 343 331 322 317 301 306 288 277 297 298 295
153 153 148 148 149 142 135 133 132 130 132 135 141 143 135 156 173 182 183 180 196 232 248 266 206 241 246 244 277 282 251 264 248 274 280 290 293 297 307 294 292 295 291
159 162 165 170 169 163 153 150 157 162 160 164 178 161 139 161 203 210 193 197 213 226 229 251 233 270 266 261 256 278 261 269 254 276 290 290 293 320 315 288 294 298 294
167 167 169 173 170 171 169 169 180 189 189 186 185 175 163 171 206 223 214 206 205 237 209 233 253 250 253 255 239 245 251 249 243 247 267 279 284 295 302 297 271 245 277
180 172 172 167 161 162 160 170 189 203 210 197 205 226 185 193 207 205 223 237 223 198 221 238 241 249 248 251 250 241 239 251 252 237 235 262 277 280 291 290 289 267 248
184 177 167 146 143 150 167 181 189 193 209 220 221 224 219 209 208 216 223 225 239 218 220 231 239 244 243 241 249 251 236 236 246 249 238 244 256 258 265 273 276 277 264
175 178 167 150 146 163 177 186 194 206 223 228 230 230 229 219 215 223 223 221 232 231 235 237 239 245 248 236 234 245 245 232 234 244 246 247 251 251 252 252 257 263 263
168 163 160 170 172 171 173 179 203 223 238 241 234 233 231 226 224 221 218 221 227 234 242 240 237 241 242 241 240 238 240 238 236 237 241 245 242 252 255 252 253 260 267
184 186 184 191 179 168 173 189 242 242 244 241 244 241 236 230 229 221 220 226 229 230 233 241 240 243 246 245 244 242 239 236 240 240 241 244 241 243 247 252 252 257 265
225 224 223 223 210 182 185 206 241 245 251 247 251 250 242 234 230 226 228 230 236 245 241 245 249 251 249 242 235 235 237 236 240 241 241 244 249 250 250 250 243 242 250
254 264 267 263 242 213 208 217 232 243 239 248 259 264 253 246 240 233 228 230 235 240 240 242 248 255 259 258 255 250 237 239 242 249 250 253 258 261 263 265 263 255 248
288 281 274 249 246 231 206 214 227 229 232 248 261 264 254 251 248 243 237 236 238 242 245 248 248 255 261 263 263 260 253 238 239 244 249 256 255 263 258 266 269 271 270
302 296 301 313 329 303 222 194 208 212 237 255 261 261 254 249 245 245 248 247 247 245 249 256 254 259 266 269 269 266 264 247 243 243 243 248 248 251 255 252 257 258 266
333 338 13 6 17 2 1 84 54 272 269 271 271 266 254 253 254 258 258 256 255 257 258 259 253 255 266 271 274 273 252 249 246 249 250 251 244 254 261 260 256 264 269
18 20 35 39 27 352 44 84 302 292 278 280 283 281 267 261 258 258 260 263 261 262 265 268 261 255 257 266 272 273 253 252 255 254 254 257 257 257 261 253 246 258 264
24 27 37 24 349 4 55 40 307 280 283 295 297 295 286 271 261 261 258 255 259 262 262 266 268 260 259 267 271 270 260 248 253 257 255 256 263 264 265 263 250 256 267
9 19 11 344 347 6 35 321 291 287 303 313 308 300 293 280 277 271 269 262 254 258 260 262 266 260 260 266 268 268 268 264 252 256 258 260 267 270 271 268 263 267 273
344 352 347 330 334 336 305 271 289 306 313 308 298 293 291 284 276 268 267 265 256 254 261 261 264 267 263 265 272 274 276 275 268 262 263 266 271 275 275 270 270 270 264
324 336 344 317 306 311 305 272 292 307 303 288 288 287 283 278 273 269 264 261 255 255 259 261 266 271 274 270 268 266 274 277 275 272 269 271 272 273 273 274 272 264 252
318 318 296 284 288 296 293 293 298 294 286 285 285 287 282 277 275 270 261 264 250 254 258 256 258 263 266 268 277 279 272 265 260 271 262 257 259 256 259 260 260 256 255
319 317 306 299 295 297 291 291 284 265 265 282 286 284 282 278 277 279 285 278 273 276 274 273 272 270 272 280 281 284 284 285 282 279 262 256 249 246 250 254 257 256 251